TimeAKDT,TemperatureF,Dew PointF,Humidity,Sea Level PressureIn,VisibilityMPH,Wind Direction,Wind SpeedMPH,Gust SpeedMPH,PrecipitationIn,Events,Conditions,WindDirDegrees,DateUTC
12:53 AM,45.0,43.0,93,29.70,10.0,Calm,Calm,-,N/A,,Scattered Clouds,0,2013-08-29 08:53:00
1:53 AM,43.0,41.0,93,29.70,10.0,Calm,Calm,-,N/A,,Mostly Cloudy,0,2013-08-29 09:53:00
2:53 AM,42.1,39.9,92,29.69,10.0,Calm,Calm,-,N/A,,Clear,0,2013-08-29 10:53:00
3:53 AM,42.1,39.9,92,29.70,10.0,Calm,Calm,-,N/A,,Mostly Cloudy,0,2013-08-29 11:53:00
4:53 AM,41.0,39.9,96,29.70,10.0,Calm,Calm,-,N/A,,Overcast,0,2013-08-29 12:53:00
5:53 AM,41.0,39.0,93,29.71,10.0,Calm,Calm,-,N/A,,Scattered Clouds,0,2013-08-29 13:53:00
6:53 AM,43.0,41.0,93,29.72,10.0,Calm,Calm,-,N/A,,Overcast,0,2013-08-29 14:53:00
7:53 AM,46.0,43.0,89,29.72,10.0,Calm,Calm,-,N/A,,Mostly Cloudy,0,2013-08-29 15:53:00
8:53 AM,48.9,45.0,86,29.73,10.0,Calm,Calm,-,N/A,,Overcast,0,2013-08-29 16:53:00
9:53 AM,51.1,46.0,83,29.73,10.0,Calm,Calm,-,N/A,,Overcast,0,2013-08-29 17:53:00
10:53 AM,53.1,46.9,80,29.72,10.0,Variable,3.5,-,N/A,,Mostly Cloudy,0,2013-08-29 18:53:00
11:53 AM,59.0,46.9,64,29.71,10.0,ESE,6.9,-,N/A,,Overcast,110,2013-08-29 19:53:00
12:53 PM,61.0,45.0,56,29.71,10.0,East,8.1,-,N/A,,Clear,100,2013-08-29 20:53:00
1:53 PM,63.0,45.0,52,29.71,10.0,ESE,10.4,-,N/A,,Clear,110,2013-08-29 21:53:00
2:53 PM,64.0,46.0,52,29.71,10.0,ESE,5.8,-,N/A,,Clear,110,2013-08-29 22:53:00
3:53 PM,64.0,45.0,50,29.70,10.0,ESE,6.9,-,N/A,,Clear,110,2013-08-29 23:53:00
4:53 PM,64.9,46.0,50,29.70,10.0,ESE,4.6,-,N/A,,Clear,110,2013-08-30 00:53:00
5:53 PM,62.1,46.9,58,29.71,10.0,Variable,6.9,-,N/A,,Overcast,0,2013-08-30 01:53:00
6:53 PM,55.9,52.0,87,29.76,10.0,WSW,6.9,-,0.01,Rain,Light Rain,240,2013-08-30 02:53:00
7:12 PM,53.6,50.0,88,29.76,1.8,Variable,3.5,-,0.06,Rain,Heavy Rain,0,2013-08-30 03:12:00
7:29 PM,53.6,51.8,94,29.75,2.5,East,6.9,-,0.12,Rain,Rain,90,2013-08-30 03:29:00
7:36 PM,53.6,51.8,94,29.76,4.0,WSW,8.1,-,0.13,Rain,Light Rain,240,2013-08-30 03:36:00
7:53 PM,53.1,51.1,93,29.78,10.0,North,3.5,-,0.14,Rain,Light Rain,350,2013-08-30 03:53:00
8:53 PM,52.0,51.1,97,29.79,10.0,Calm,Calm,-,0.03,Rain,Light Rain,0,2013-08-30 04:53:00
9:53 PM,52.0,51.1,97,29.80,10.0,Calm,Calm,-,0.01,Rain,Light Rain,0,2013-08-30 05:53:00
10:53 PM,51.1,50.0,96,29.80,10.0,Calm,Calm,-,0.01,,Mostly Cloudy,0,2013-08-30 06:53:00
11:53 PM,48.9,46.9,93,29.80,10.0,Calm,Calm,-,N/A,,Clear,0,2013-08-30 07:53:00